Location: St. Louis
(38.6270°N, 90.1994°W)
Time: 14:20:18
(UTC-06:00)

Transit 4A - Pass Details

Date: 08 December 2021
Orbit: 864 x 980 km, 66.8° (Epoch: 16 January)

Event Time Altitude Azimuth Distance (km) Brightness Sun altitude
Rises 02:57:30 0° 335° (NNW) 3,624 - -47.7°
Reaches altitude 10° 03:00:06 10° 339° (NNW) 2,691 - -47.2°
Maximum altitude 03:06:18 58° 58° (ENE) 1,124 - -46.0°
Drops below altitude 10° 03:12:35 10° 137° (SE) 2,722 - -44.8°
Exits shadow 03:12:35 10° 137° (SE) 2,725 10.6 -44.8°
Sets 03:15:12 0° 141° (SE) 3,668 11.4 -44.3°
